Weather History for KYNG - November, 2011

Change the Weather History Date:

Sunday, November 27, 2011

  Actual Average Record
Temperature  
Mean Temperature 55 °F 37 °F  
Max Temperature 57 °F 44 °F 72 °F (1990)
Min Temperature 52 °F 30 °F 8 °F (1950)
Degree Days  
Heating Degree Days 10 28  
Month to date heating degree days 489 622  
Since 1 July heating degree days 1041 1243  
Cooling Degree Days 0 0  
Month to date cooling degree days 0 0  
Year to date cooling degree days 731 544  
Growing Degree Days 5 (Base 50)    
Moisture  
Dew Point 48 °F    
Average Humidity 77    
Maximum Humidity 100    
Minimum Humidity 54    
Precipitation  
Precipitation 0.44 in 0.11 in 0.96 in (1993)
Month to date precipitation 3.17 2.86  
Year to date precipitation 48.60 35.60  
Snow  
Snow 0.00 in 0.20 in - ()
Month to date snowfall 1.7 2.9  
Since 1 July snowfall 1.7 3.7  
Since 1 September snowfall 1.7 3.7  
Snow Depth 0.00 in    
Sea Level Pressure  
Sea Level Pressure 29.91 in    
Wind  
Wind Speed 10 mph (South)    
Max Wind Speed 16 mph    
Max Gust Speed 25 mph    
Visibility 8 miles    
Events Rain    
T = Trace of Precipitation, MM = Missing Value Source: NWS Daily Summary

Daily Weather History Graph

Daily Weather History Graph

Search for Another Location

Airport or City:

Trip Planner

Search our weather history database for the weather conditions in past years. The results will help you decide how hot, cold, wet, or windy it might be!

Date:

Astronomy

Nov. 27, 2011 Rise Set
Actual Time 7:24 AM EST 4:55 PM EST
Civil Twilight 6:53 AM EST 5:26 PM EST
Nautical Twilight 6:19 AM EST 6:00 PM EST
Astronomical Twilight 5:46 AM EST 6:33 PM EST
Moon 9:48 AM EST (11/27) 7:32 PM EST (11/27)
Length of Visible Light 10h 32m
Length of Day
9h 31m
Waxing Crescent, 8% of the Moon is Illuminated
Nov 27
Waxing Crescent
Dec 2
First Quarter
Dec 10
Full
Dec 17
Last Quarter
Dec 24
New

Hourly Weather History & Observations

Time (EST) Temp. Dew Point Humidity Pressure Visibility Wind Dir Wind Speed Gust Speed Precip Events Conditions
12:51 AM 53.1 °F 41.0 °F 64% 30.00 in 10.0 mi SE 12.7 mph 17.3 mph N/A   Mostly Cloudy
1:51 AM 53.6 °F 39.2 °F 58% 29.98 in 10.0 mi SSE 9.2 mph - N/A   Mostly Cloudy
2:51 AM 53.1 °F 39.0 °F 59% 29.96 in 10.0 mi SSE 12.7 mph 25.3 mph N/A   Mostly Cloudy
3:51 AM 53.1 °F 37.9 °F 57% 29.94 in 10.0 mi SSE 10.4 mph - N/A   Mostly Cloudy
4:51 AM 54.0 °F 37.9 °F 55% 29.94 in 10.0 mi South 10.4 mph 20.7 mph N/A   Overcast
5:51 AM 54.0 °F 39.0 °F 57% 29.93 in 10.0 mi South 8.1 mph - N/A   Overcast
6:51 AM 55.0 °F 39.9 °F 57% 29.93 in 10.0 mi South 11.5 mph 18.4 mph N/A   Overcast
7:51 AM 55.0 °F 41.0 °F 59% 29.95 in 10.0 mi South 11.5 mph 18.4 mph N/A   Overcast
8:51 AM 53.1 °F 45.0 °F 74% 29.96 in 10.0 mi South 10.4 mph - 0.01 in Rain Light Rain
9:51 AM 55.0 °F 46.0 °F 72% 29.94 in 10.0 mi South 12.7 mph 20.7 mph 0.00 in Rain Light Rain
10:51 AM 54.0 °F 48.0 °F 80% 29.94 in 10.0 mi South 12.7 mph 19.6 mph 0.01 in Rain Light Rain
11:51 AM 53.1 °F 48.9 °F 86% 29.91 in 3.0 mi South 10.4 mph - 0.04 in Rain Light Rain
12:28 PM 53.6 °F 48.2 °F 82% 29.89 in 10.0 mi South 12.7 mph 20.7 mph 0.07 in   Overcast
12:51 PM 54.0 °F 48.9 °F 83% 29.89 in 10.0 mi South 11.5 mph 20.7 mph 0.07 in   Overcast
1:51 PM 55.0 °F 48.9 °F 80% 29.87 in 10.0 mi South 12.7 mph - 0.00 in Rain Light Rain
2:51 PM 55.0 °F 50.0 °F 83% 29.85 in 10.0 mi South 11.5 mph - 0.00 in Rain Light Rain
3:44 PM 55.4 °F 51.8 °F 88% 29.87 in 8.0 mi South 11.5 mph - 0.00 in   Overcast
3:51 PM 55.0 °F 51.1 °F 86% 29.88 in 9.0 mi South 11.5 mph 18.4 mph 0.00 in   Overcast
4:22 PM 55.4 °F 50.0 °F 82% 29.87 in 10.0 mi South 11.5 mph 19.6 mph N/A   Overcast
4:51 PM 55.9 °F 50.0 °F 80% 29.87 in 10.0 mi South 11.5 mph - N/A   Overcast
5:22 PM 57.2 °F 50.0 °F 77% 29.87 in 10.0 mi South 11.5 mph 21.9 mph N/A   Overcast
5:51 PM 55.9 °F 50.0 °F 80% 29.87 in 10.0 mi South 9.2 mph - N/A   Overcast
6:51 PM 55.0 °F 52.0 °F 89% 29.89 in 6.0 mi South 9.2 mph - 0.04 in Rain Rain
7:36 PM 53.6 °F 51.8 °F 94% 29.90 in 6.0 mi South 10.4 mph - N/A Rain Light Rain
7:51 PM 55.0 °F 53.1 °F 93% 29.90 in 5.0 mi South 12.7 mph 18.4 mph 0.08 in Rain Light Rain
8:45 PM 55.4 °F 53.6 °F 94% 29.91 in 6.0 mi SSW 9.2 mph - 0.07 in Rain Light Rain
8:51 PM 55.0 °F 53.1 °F 93% 29.92 in 4.0 mi SW 10.4 mph - 0.08 in Rain Rain
9:16 PM 55.4 °F 53.6 °F 94% 29.92 in 7.0 mi SW 8.1 mph - 0.02 in Rain Light Rain
9:51 PM 55.0 °F 53.1 °F 93% 29.93 in 8.0 mi SW 6.9 mph - 0.05 in Rain Light Rain
10:28 PM 53.6 °F 53.6 °F 100% 29.91 in 7.0 mi SSW 3.5 mph - 0.03 in Rain Light Rain
10:51 PM 54.0 °F 53.1 °F 97% 29.93 in 9.0 mi South 4.6 mph - 0.04 in Rain Light Rain
11:51 PM 54.0 °F 52.0 °F 93% 29.94 in 5.0 mi WSW 4.6 mph - 0.01 in Rain Light Rain